Погода в Трещевском

Россия / Кемеровская область (Кузбасс)     55°07′29″N   85°46′01″E
темп.,
°C
ветер,
м/с
пор.,
м/с
влажн.,
%
обл.,
%
осадки,
мм/ч
давл.,
гПа
погр.,
м
5 августа, чт
чт501:00+14з359530 0.8 100689
04:00+13зсз2396100 0.3 100661
07:00+14з2497100 1.3 1007129
10:00+16з349035 0.4 1007368
13:00+21зсз336814 0.7 1006998
16:00+22зсз346147 0.8 10051383
19:00+20зсз23825 2.6 1005260
22:00+16ссз119067 0.8 100611
6 августа, пт
пт601:00+14сз119216 0.8 100610
04:00+13з129599 0.0 100611
07:00+14з1195100 0.0 100759
10:00+18зюз218471 0.0 1007495
13:00+22юз1166100 0.1 10071162
16:00+23юз1160100 0.4 10071137
19:00+21зюз117571 1.3 1008271
22:00+16сз118783 0.3 100911
7 августа, сб
сб701:00+15всв118989 0.3 100911
04:00+15ю1191100 0.0 101011
07:00+16вюв119341 0.0 101141
10:00+19в228193 0.0 1012463
13:00+23вюв226362 0.0 10111046
16:00+25в335860 0.0 10111297
19:00+24с01648 0.0 1011721
22:00+18ссз228242 0.3 101212
8 августа, вс
вс801:00+17св338919 0.6 101232
04:00+16всв33895 0.0 101142
07:00+16св228734 0.0 101230
10:00+22в23682 0.0 1011357
13:00+26в23527 0.0 10101191
16:00+27юв234338 0.0 10101741
19:00+26сз11575 0.0 100926
22:00+20сз11645 0.0 100911
9 августа, пн
пн901:00+18юв11715 0.0 100911
04:00+16ююв118272 0.0 100811
07:00+17зюз248399 0.0 100998
10:00+17з3594100 1.1 1009252
13:00+18юз1289100 3.1 1010261
16:00+19ю1284100 1.9 1010444
19:00+20зсз348522 6.6 1009283
22:00+16сз229098 1.2 100924